Weather History for Gallivare, Sweden

Change the Weather History Date:

Sunday, December 30, 2012

  Actual Average Record
Temperature  
Mean Temperature 19 °F -  
Max Temperature 32 °F - - ()
Min Temperature 6 °F - - ()
Degree Days  
Heating Degree Days 46    
Moisture  
Dew Point 21 °F    
Average Humidity 97    
Maximum Humidity 100    
Minimum Humidity 85    
Precipitation  
Precipitation 0.00 in - - ()
Sea Level Pressure  
Sea Level Pressure 29.23 in    
Wind  
Wind Speed 3 mph ()    
Max Wind Speed 7 mph    
Max Gust Speed -    
Visibility 1.9 miles    
Events Snow    
T = Trace of Precipitation, MM = Missing Value Source: Averaged Metar Reports

Daily Weather History Graph

Daily Weather History Graph

Search for Another Location

Airport:

Trip Planner

Search our weather history database for the weather conditions in past years. The results will help you decide how hot, cold, wet, or windy it might be!

Date:

Astronomy

Dec. 30, 2012 Rise Set
Actual Time 10:44 AM CET 12:34 PM CET
Civil Twilight 8:43 AM CET 2:35 PM CET
Nautical Twilight 7:21 AM CET 3:57 PM CET
Astronomical Twilight 6:13 AM CET 5:05 PM CET
Moon 4:48 PM CET (12/30) 9:49 AM CET (12/30)
Length of Visible Light 5h 51m
Length of Day
1h 49m
Waning Gibbous, 96% of the Moon is Illuminated
Dec 30
Waning Gibbous
Jan 5
Last Quarter
Jan 11
New
Jan 19
First Quarter
Jan 27
Full

Hourly Weather History & Observations

Time (CET) Temp. Windchill Dew Point Humidity Pressure Visibility Wind Dir Wind Speed Gust Speed Precip Events Conditions
12:20 AM 6.8 °F -0.1 °F 3.2 °F 85% 29.62 in 0.6 mi East 3.5 mph - N/A Snow Light Snow
12:50 AM 6.8 °F -0.1 °F 3.2 °F 85% 29.59 in - East 3.5 mph - N/A Snow Snow
1:20 AM 6.8 °F - 5.0 °F 92% 29.56 in 0.5 mi East 2.3 mph - N/A Snow Snow
1:50 AM 6.8 °F - 5.0 °F 92% 29.53 in 0.2 mi Variable 2.3 mph - N/A Snow Heavy Snow
2:20 AM 8.6 °F - 5.0 °F 85% 29.53 in - Variable 2.3 mph - N/A Snow Snow
2:50 AM 8.6 °F 2.0 °F 6.8 °F 92% 29.50 in 1.1 mi East 3.5 mph - N/A Snow Light Snow
3:20 AM 8.6 °F - 6.8 °F 92% 29.47 in 0.8 mi East 2.3 mph - N/A Snow Light Snow
3:50 AM 10.4 °F - 8.6 °F 92% 29.44 in 3.7 mi East 2.3 mph - N/A   Light Ice Pellets
4:20 AM 10.4 °F 4.0 °F 8.6 °F 92% 29.42 in 1.2 mi ESE 3.5 mph - N/A Snow Light Snow
4:50 AM 12.2 °F - 10.4 °F 92% 29.42 in 1.2 mi ESE 2.3 mph - N/A Snow Light Snow
5:20 AM 12.2 °F - 10.4 °F 92% 29.39 in - SE 2.3 mph - N/A Snow Snow
5:50 AM 12.2 °F - 10.4 °F 92% 29.36 in 0.4 mi SE 1.2 mph - N/A Snow Snow
6:20 AM 12.2 °F - 10.4 °F 92% 29.36 in 0.4 mi Calm Calm - N/A Snow Snow
6:50 AM 14.0 °F - 12.2 °F 93% 29.33 in 1.0 mi Calm Calm - N/A Snow Light Snow
7:20 AM 14.0 °F - 12.2 °F 93% 29.30 in 0.9 mi Calm Calm - N/A   Unknown
7:50 AM 17.6 °F 12.3 °F 17.6 °F 100% 29.30 in 0.6 mi East 3.5 mph - N/A   Ice Pellets
8:50 AM 21.2 °F 16.4 °F 19.4 °F 93% 29.24 in 1.4 mi East 3.5 mph - N/A   Light Ice Pellets
9:20 AM 21.2 °F 16.4 °F 21.2 °F 100% 29.24 in 0.4 mi East 3.5 mph - N/A Snow Light Snow
9:50 AM 23.0 °F 18.4 °F 21.2 °F 93% 29.21 in - East 3.5 mph - N/A Snow Snow
10:20 AM 23.0 °F 18.4 °F 23.0 °F 100% 29.21 in 0.4 mi East 3.5 mph - N/A Snow Snow
10:50 AM 23.0 °F 18.4 °F 23.0 °F 100% 29.18 in 0.4 mi ESE 3.5 mph - N/A Snow Snow
11:20 AM 23.0 °F 18.4 °F 23.0 °F 100% 29.18 in 0.9 mi East 3.5 mph - N/A Snow Light Snow
11:50 AM 24.8 °F 19.1 °F 23.0 °F 93% 29.18 in 0.9 mi East 4.6 mph - N/A Snow Light Snow
12:20 PM 24.8 °F 19.1 °F 24.8 °F 100% 29.15 in 0.7 mi East 4.6 mph - N/A Snow Light Snow
12:50 PM 24.8 °F 16.9 °F 24.8 °F 100% 29.12 in 1.1 mi East 6.9 mph - N/A Snow Snow Grains
1:20 PM 24.8 °F 17.9 °F 24.8 °F 100% 29.12 in 0.9 mi ESE 5.8 mph - N/A Snow Light Snow
1:50 PM 26.6 °F 20.0 °F 26.6 °F 100% 29.12 in 0.4 mi ESE 5.8 mph - N/A Snow Snow
2:20 PM 26.6 °F 20.0 °F 26.6 °F 100% 29.09 in 0.6 mi ESE 5.8 mph - N/A Snow Snow
2:50 PM 26.6 °F 21.2 °F 26.6 °F 100% 29.09 in 1.6 mi ESE 4.6 mph - N/A Snow Snow
3:20 PM 26.6 °F 21.2 °F 26.6 °F 100% 29.09 in 1.6 mi ESE 4.6 mph - N/A Snow Light Snow
3:50 PM 28.4 °F 23.3 °F 28.4 °F 100% 29.09 in 1.2 mi ESE 4.6 mph - N/A Snow Snow
4:20 PM 30.2 °F 25.4 °F 30.2 °F 100% 29.09 in 1.4 mi East 4.6 mph - N/A Snow Snow
4:50 PM 30.2 °F 26.7 °F 30.2 °F 100% 29.06 in 1.6 mi ESE 3.5 mph - N/A Snow Light Snow
5:20 PM 30.2 °F 26.7 °F 30.2 °F 100% 29.06 in 5.0 mi East 3.5 mph - N/A Snow Light Snow
5:50 PM 30.2 °F 25.4 °F 30.2 °F 100% 29.06 in - East 4.6 mph - N/A Snow Light Snow
6:20 PM 32.0 °F 28.7 °F 32.0 °F 100% 29.06 in - East 3.5 mph - N/A Snow Light Snow
6:50 PM 32.0 °F 28.7 °F 32.0 °F 100% 29.06 in 2.5 mi ESE 3.5 mph - N/A Snow Snow Grains
7:50 PM 32.0 °F - 32.0 °F 100% 29.06 in 4.3 mi Variable 2.3 mph - N/A Snow Light Snow
8:20 PM 32.0 °F - 32.0 °F 100% 29.06 in 1.5 mi Variable 2.3 mph - N/A Snow Light Snow
8:50 PM 32.0 °F 28.7 °F 32.0 °F 100% 29.09 in 3.7 mi South 3.5 mph - N/A Snow Light Snow
9:20 PM 32.0 °F - 32.0 °F 100% 29.09 in 3.7 mi Variable 2.3 mph - N/A Snow Snow Grains
9:50 PM 32.0 °F 28.7 °F 32.0 °F 100% 29.09 in 3.7 mi South 3.5 mph - N/A Snow Light Snow
10:20 PM 32.0 °F - 32.0 °F 100% 29.09 in 6.2 mi Variable 2.3 mph - N/A   Unknown
10:50 PM 30.2 °F - 30.2 °F 100% 29.09 in 6.2 mi Variable 2.3 mph - N/A   Unknown
11:20 PM 30.2 °F 25.4 °F 30.2 °F 100% 29.12 in 6.2 mi SSE 4.6 mph - N/A   Unknown
11:50 PM 30.2 °F - 30.2 °F 100% 29.12 in 6.2 mi Calm Calm - N/A   Scattered Clouds